Terminal Aerodrome Forecast
Issued by NWS Buffalo, NY

Current Version | Previous Version | Text Only | Print | Product List | Glossary On
Versions: 1 2 3 4 5 6 7 8 9 10 11 12 13 14 15 16 17 18 19 20 21 22 23 24
623
FTUS41 KBUF 241730
TAFROC
TAF
KROC 241730Z 2418/2518 23012KT P6SM FEW045 BKN080
     FM242200 25016G23KT P6SM BKN040
     FM250000 26005KT P6SM VCSH OVC012
     FM250200 27004KT 6SM -RA OVC012
     FM250400 02006KT 4SM -RA OVC003
     FM250600 03004KT 1SM -RA BR OVC003
     FM251000 04009KT 3SM -RA OVC003
     FM251400 04010G18KT 6SM -RA OVC007=

USA.gov is the U.S. government's official web portal to all federal, state and local government web resources and services.